This is the latest recevied weather packets stored in our database for station/object K7CTM. If no packets are shown the sender has not sent any weather packets the latest 1 day(s).
| Time | Temp. | Humidity | Pressure | Rain* | Wind** | Luminosity | Snow |
|---|---|---|---|---|---|---|---|
| 1778048158 | 1.11° C | 55% | 1028.8 hPa | 0 mm | 2.68 m/s, 252° | 0 W/m² | - |
| 1778047856 | 1.11° C | 56% | 1029 hPa | 0 mm | 1.79 m/s, 248° | 0 W/m² | - |
| 1778047555 | 0.56° C | 56% | 1029 hPa | 0 mm | 1.79 m/s, 242° | 0 W/m² | - |
| 1778047251 | 1.11° C | 56% | 1028.9 hPa | 0 mm | 1.79 m/s, 223° | 0 W/m² | - |
| 1778046949 | 1.11° C | 55% | 1029 hPa | 0 mm | 1.79 m/s, 250° | 0 W/m² | - |
| 1778046645 | 1.11° C | 55% | 1028.9 hPa | 0 mm | 1.34 m/s, 250° | 0 W/m² | - |
| 1778046342 | 1.11° C | 55% | 1029 hPa | 0 mm | 1.34 m/s, 238° | 0 W/m² | - |
| 1778046038 | 1.11° C | 55% | 1028.9 hPa | 0 mm | 0.89 m/s, 237° | 0 W/m² | - |
| 1778045736 | 1.11° C | 55% | 1029 hPa | 0 mm | 1.79 m/s, 240° | 0 W/m² | - |
| 1778045434 | 1.11° C | 56% | 1029 hPa | 0 mm | 1.34 m/s, 248° | 0 W/m² | - |
| 1778045132 | 1.11° C | 56% | 1029 hPa | 0 mm | 1.34 m/s, 238° | 0 W/m² | - |
| 1778044830 | 0.56° C | 57% | 1029 hPa | 0 mm | 0.89 m/s, 226° | 0 W/m² | - |
| 1778044526 | 0.56° C | 58% | 1028.9 hPa | 0 mm | 1.34 m/s, 243° | 0 W/m² | - |
| 1778044223 | 1.67° C | 56% | 1029 hPa | 0 mm | 0.89 m/s, 248° | 0 W/m² | - |
| 1778043921 | 1.67° C | 55% | 1028.9 hPa | 0 mm | 1.34 m/s, 235° | 0 W/m² | - |
| 1778043619 | 1.11° C | 55% | 1029 hPa | 0 mm | 0.45 m/s, 220° | 0 W/m² | - |
| 1778043315 | 1.67° C | 55% | 1029 hPa | 0 mm | 1.34 m/s, 31° | 0 W/m² | - |
| 1778043012 | 1.67° C | 54% | 1028.9 hPa | 0 mm | 1.79 m/s, 255° | 0 W/m² | - |
| 1778042710 | 2.22° C | 52% | 1028.9 hPa | 0 mm | 2.68 m/s, 251° | 0 W/m² | - |
| 1778042406 | 2.22° C | 52% | 1028.8 hPa | 0 mm | 2.68 m/s, 258° | 0 W/m² | - |
| 1778042103 | 3.33° C | 50% | 1029 hPa | 0 mm | 1.79 m/s, 257° | 0 W/m² | - |
| 1778041801 | 3.89° C | 47% | 1028.9 hPa | 0 mm | 0.89 m/s, 276° | 0 W/m² | - |
| 1778041501 | 3.89° C | 45% | 1029 hPa | 0 mm | 0.89 m/s, 286° | 0 W/m² | - |
| 1778041198 | 3.89° C | 45% | 1028.9 hPa | 0 mm | 0.89 m/s, 289° | 0 W/m² | - |
| 1778040896 | 3.89° C | 45% | 1028.9 hPa | 0 mm | 0.89 m/s, 281° | 0 W/m² | - |
* Rain latest hour (hover to see other rain measurements)
** Current wind speed in m/s (hover to see current wind gust speed)